This is the latest recevied weather packets stored in our database for station/object PA3CPS. If no packets are shown the sender has not sent any weather packets the latest 10 day(s).
| Time | Temp. | Humidity | Pressure | Rain* | Wind** | Luminosity | Snow |
|---|---|---|---|---|---|---|---|
| 1777555174 | 20.56° C | 24% | 1027.1 hPa | 0 mm | - | 805 W/m² | - |
| 1777554873 | 20° C | 23% | 1027.1 hPa | 0 mm | - | 810 W/m² | - |
| 1777554572 | 20° C | 23% | 1027.2 hPa | 0 mm | - | 817 W/m² | - |
| 1777554276 | 20° C | 23% | 1027.3 hPa | 0 mm | - | 824 W/m² | - |
| 1777553972 | 20° C | 24% | 1027.3 hPa | 0 mm | - | 831 W/m² | - |
| 1777553675 | 20° C | 23% | 1027.4 hPa | 0 mm | - | 796 W/m² | - |
| 1777553372 | 20° C | 25% | 1027.5 hPa | 0 mm | - | 840 W/m² | - |
| 1777553072 | 20° C | 24% | 1027.5 hPa | 0 mm | - | 844 W/m² | - |
| 1777552771 | 20° C | 24% | 1027.5 hPa | 0 mm | - | 851 W/m² | - |
| 1777552469 | 20° C | 28% | 1027.4 hPa | 0 mm | - | 853 W/m² | - |
| 1777552167 | 20° C | 25% | 1027.4 hPa | 0 mm | - | 856 W/m² | - |
| 1777551866 | 20° C | 26% | 1027.4 hPa | 0 mm | - | 858 W/m² | - |
| 1777551564 | 19.44° C | 25% | 1027.5 hPa | 0 mm | - | 865 W/m² | - |
| 1777551265 | 19.44° C | 24% | 1027.5 hPa | 0 mm | - | 867 W/m² | - |
| 1777550962 | 19.44° C | 26% | 1027.6 hPa | 0 mm | - | 868 W/m² | - |
| 1777550660 | 18.89° C | 26% | 1027.5 hPa | 0 mm | - | 872 W/m² | - |
| 1777550359 | 18.89° C | 26% | 1027.6 hPa | 0 mm | - | 874 W/m² | - |
| 1777550056 | 18.89° C | 25% | 1027.6 hPa | 0 mm | - | 877 W/m² | - |
| 1777549756 | 18.89° C | 25% | 1027.6 hPa | 0 mm | - | 877 W/m² | - |
| 1777549455 | 18.89° C | 26% | 1027.6 hPa | 0 mm | - | 877 W/m² | - |
| 1777549155 | 18.33° C | 26% | 1027.7 hPa | 0 mm | - | 879 W/m² | - |
| 1777548853 | 18.89° C | 26% | 1027.8 hPa | 0 mm | - | 877 W/m² | - |
| 1777548549 | 18.89° C | 28% | 1028.1 hPa | 0 mm | - | 875 W/m² | - |
| 1777548250 | 18.33° C | 26% | 1027.9 hPa | 0 mm | - | 874 W/m² | - |
| 1777547945 | 18.33° C | 26% | 1028 hPa | 0 mm | - | 877 W/m² | - |
* Rain latest hour (hover to see other rain measurements)
** Current wind speed in m/s (hover to see current wind gust speed)